Flag for Norway Weather past 2 weeks in Stavern, Norway

Now
54 °F

Rain. Passing clouds.


Feels Like: 50 °F
Forecast: 51 / 61 °F
Wind: 13 mph from Northeast

Location: Torp

Current Time: Sep 2, 2015 at 5:10:26 AM

Latest Report: Sep 2, 2015 at 4:20 AM


Visibility: 3 mi

Pressure: 29.62 "Hg

Humidity: 100%

Dew point: 54 °F

Location of StavernLocation

Historic Weather in Stavern — Graph

°F

Stavern temperature yesterday

Maximum temperature yesterday: 57 °F (at 3:50 AM)
Minimum temperature yesterday: 54 °F (at 9:50 AM)
Average temperature yesterday: 55 °F

Past Weeks' High & Low Weather Summary

 TemperatureHumidityPressure
High75 °F (Aug 23, 3:50 PM)100% (Aug 19, 5:20 AM)30.36 "Hg (Aug 19, 5:20 AM)
Low48 °F (Aug 21, 6:20 AM)38% (Aug 19, 5:50 PM)29.50 "Hg (Aug 27, 5:20 PM)
Average60 °F80%30.01 "Hg
* Reported Aug 18 3:20 AM — Sep 2 3:50 AM, Stavern, Weather by CustomWeather, © 2015

Note: Actual official high and low records may vary slightly from our data, if they occured in-between our weather recording intervals... More about our weather records

Advertising

Stavern weather history for previous 24 hours

 ConditionsComfort  
Time TempWeatherWind HumidityBarometerVisibility
3:50 AM
Wed, Sep 2
54 °FHeavy rain. Partly cloudy.13 mph100%29.62 "Hg2 mi
3:20 AM54 °FHeavy rain. Mostly cloudy.14 mph100%29.62 "Hg2 mi
2:50 AM54 °FRain. Passing clouds.13 mph100%29.65 "Hg3 mi
2:20 AM54 °FHeavy rain. Passing clouds.14 mph100%29.65 "Hg2 mi
1:50 AM55 °FRain. Partly cloudy.14 mph100%29.65 "Hg3 mi
1:20 AM54 °FHeavy rain. Passing clouds.15 mph100%29.68 "Hg2 mi
12:50 AM55 °FHeavy rain. Passing clouds.14 mph100%29.68 "Hg2 mi
11:20 PM
Tue, Sep 1
55 °FLight rain. Mostly cloudy.16 mph100%29.71 "Hg3 mi
10:50 PM55 °FRain. Partly cloudy.17 mph100%29.71 "Hg4 mi
10:20 PM55 °FRain. Partly cloudy.15 mph100%29.71 "Hg3 mi
9:50 PM55 °FRain. Passing clouds.14 mph100%29.74 "Hg3 mi
9:20 PM55 °FRain. Partly sunny.14 mph100%29.74 "Hg3 mi
8:50 PM55 °FRain. Partly sunny.14 mph100%29.74 "Hg3 mi
8:20 PM55 °FRain. Fog.15 mph100%29.77 "Hg2 mi
7:50 PM55 °FRain. Partly sunny.16 mph94%29.77 "Hg3 mi
7:20 PM55 °FLight rain. Partly sunny.14 mph94%29.77 "Hg4 mi
6:50 PM55 °FLight rain. Partly sunny.15 mph100%29.77 "Hg4 mi
6:20 PM55 °FRain. Fog.13 mph100%29.77 "Hg3 mi
5:50 PM55 °FRain. Broken clouds.15 mph100%29.77 "Hg4 mi
5:20 PM55 °FLight rain. Partly sunny.15 mph100%29.80 "Hg5 mi
4:50 PM55 °FLight rain. Broken clouds.16 mph100%29.80 "Hg6 mi
4:20 PM55 °FDrizzle. Broken clouds.15 mph100%29.80 "HgN/A
3:50 PM55 °FLight rain. Partly sunny.15 mph100%29.80 "Hg4 mi
3:20 PM55 °FLight rain. Fog.13 mph100%29.80 "Hg3 mi
2:50 PM55 °FLight rain. Partly sunny.14 mph100%29.80 "Hg4 mi
2:20 PM55 °FLight rain. Partly sunny.15 mph100%29.80 "Hg5 mi
1:50 PM55 °FLight rain. Broken clouds.15 mph100%29.83 "Hg6 mi
1:20 PM55 °FLight rain. Broken clouds.15 mph100%29.83 "Hg6 mi
12:50 PM55 °FRain. Partly sunny.14 mph94%29.83 "Hg4 mi
12:20 PM55 °FLight rain. Broken clouds.13 mph94%29.83 "HgN/A
11:50 AM55 °FLight rain. Broken clouds.14 mph94%29.83 "HgN/A
11:20 AM55 °FLight rain. Scattered clouds.13 mph94%29.83 "HgN/A
10:50 AM54 °FLight rain. Broken clouds.13 mph100%29.83 "HgN/A
10:20 AM54 °FMixture of precip. Partly sunny.14 mph100%29.83 "HgN/A
9:50 AM54 °FDrizzle. Partly sunny.13 mph100%29.86 "HgN/A
9:20 AM55 °FLight rain. Partly sunny.12 mph94%29.83 "HgN/A
8:50 AM55 °FLight rain. Partly sunny.14 mph94%29.83 "HgN/A
8:20 AM55 °FLight rain. Partly sunny.12 mph94%29.83 "HgN/A
7:50 AM55 °FDrizzle. Fog.10 mph100%29.86 "HgN/A
7:20 AM57 °FPassing clouds.9 mph94%29.86 "HgN/A
6:50 AM57 °FSprinkles. Passing clouds.8 mph94%29.86 "HgN/A
6:20 AM57 °FPassing clouds.8 mph94%29.83 "HgN/A
5:20 AM55 °FLight rain. Passing clouds.6 mph100%29.86 "HgN/A
Weather by CustomWeather, © 2015

See weather overviewHow to use our weather pages